Location: Helsinki
(60.1699°N, 24.9384°E)
Time: 21:14:26
(UTC+02:00)

Transit 2A Rocket - Pass Details

Date: 25 September 2023
Orbit: 593 x 903 km, 66.7° (Epoch: 29 November)

Event Time Altitude Azimuth Distance (km) Brightness Sun altitude
Rises 20:37:15 0° 289° (WNW) 3,144 10.4 -11.3°
Reaches altitude 10° 20:39:50 10° 297° (WNW) 2,169 8.9 -11.6°
Maximum altitude 20:44:25 39° 6° (N) 1,001 5.7 -12.1°
Enters shadow 20:48:14 13° 74° (ENE) 1,855 6.5 -12.6°
Drops below altitude 10° 20:48:40 10° 76° (ENE) 2,013 - -12.6°
Sets 20:51:00 0° 85° (E) 2,888 - -12.9°
